This demonstration page uses our WeatherBlox Daily Observations layout. Learn more.

Left ArrowRight Arrow

Hourly Observations for August 25, 2020

Temp ( °F °C ) Dew Point ( °F °C ) Humidity (%) Winds ( mph kmh ) Pressure ( in mb ) Visibility ( mi km ) Precip ( " mm )
12:15 am 00:15 Clear 73 23 69 20.6 86 86 WSW 6 9 30.04 1017 10 16 0.00 0.00
12:35 am 00:35 Clear 73 22.8 69 20.6 87 87 WSW 6 9 30.04 1017 10 16 0.00 0.00
12:55 am 00:55 Clear 73 22.7 69 20.8 89 89 WSW 6 9 30.04 1017 10 16 0.00 0.00
1:15 am 01:15 Clear 73 22.5 70 21 91 91 SW 6 9 30.04 1017 10 16 0.00 0.00
1:35 am 01:35 Clear 73 22.5 70 21 91 91 SW 6 9 30.04 1017 10 16 0.00 0.00
1:55 am 01:55 Clear 73 22.5 70 21.1 92 92 WSW 6 9 30.04 1017 10 16 0.00 0.00
2:15 am 02:15 Clear 72 22.4 70 21.1 92 92 SW 6 9 30.04 1017 10 16 0.00 0.00
2:35 am 02:35 Clear 72 22.3 70 21.2 94 94 SW 5 7 30.04 1017 10 16 0.00 0.00
2:55 am 02:55 Clear 72 22.1 70 21 94 94 SW 5 7 30.04 1017 10 16 0.00 0.00
3:15 am 03:15 Clear 72 22 70 21 94 94 W 5 7 30.04 1017 10 16 0.00 0.00
3:35 am 03:35 Clear 73 22.5 70 21.3 93 93 WSW 5 7 30.04 1017 10 16 0.00 0.00
3:55 am 03:55 Clear 71 21.6 69 20.8 95 95 SW 5 7 30.04 1017 10 16 0.00 0.00
4:15 am 04:15 Partly Cloudy 71 21.5 70 21 97 97 WSW 6 9 30.04 1017 10 16 0.00 0.00
4:35 am 04:35 Mostly Cloudy 72 22 70 21.2 95 95 SW 7 11 30.03 1017 10 16 0.00 0.00
4:55 am 04:55 Partly Cloudy 72 22.2 70 21.3 95 95 WSW 5 7 30.03 1017 10 16 0.00 0.00
5:15 am 05:15 Partly Cloudy 72 22.4 70 21.3 94 94 WSW 6 9 30.03 1017 10 16 0.00 0.00
5:35 am 05:35 Clear 73 22.5 70 21.2 92 92 W 5 7 30.03 1017 10 16 0.00 0.00
5:55 am 05:55 Clear 72 22.2 70 21.1 94 94 W 6 9 30.04 1017 10 16 0.00 0.00
6:15 am 06:15 Partly Cloudy 72 22.1 70 21 94 94 W 6 9 30.05 1018 10 16 0.00 0.00
6:35 am 06:35 Partly Cloudy 72 22 70 21 94 94 W 6 9 30.05 1018 10 16 0.00 0.00
6:55 am 06:55 Mostly Cloudy 72 22.1 69 20.8 92 92 W 6 9 30.06 1018 10 16 0.00 0.00
7:15 am 07:15 Partly Cloudy 72 22.1 69 20.6 91 91 WSW 5 7 30.06 1018 10 16 0.00 0.00
7:35 am 07:35 Sunny 72 22 69 20.6 92 92 WSW 6 9 30.07 1018 10 16 0.00 0.00
7:55 am 07:55 Sunny 72 22.2 69 20.7 91 91 WSW 7 11 30.06 1018 10 16 0.00 0.00
8:15 am 08:15 Sunny 73 22.6 70 21 91 91 W 6 9 30.07 1018 10 16 0.00 0.00
8:35 am 08:35 Partly Cloudy 74 23.1 70 21.1 89 89 W 6 9 30.07 1018 7 11 0.00 0.00
8:55 am 08:55 Sunny 75 23.7 71 21.5 88 88 WSW 6 9 30.05 1018 7 11 0.00 0.00
9:15 am 09:15 Sunny 76 24.6 71 21.8 84 84 WNW 3 6 30.07 1018 10 16 0.00 0.00
9:35 am 09:35 Sunny 77 25.1 72 22 83 83 WSW 7 11 30.07 1018 10 16 0.00 0.00
9:55 am 09:55 Sunny 79 25.9 72 22.3 81 81 WNW 3 6 30.07 1018 10 16 0.00 0.00
10:15 am 10:15 Sunny 79 26.2 72 22.4 80 80 WNW 7 11 30.07 1018 10 16 0.00 0.00
10:35 am 10:35 Sunny 80 26.6 72 22.4 78 78 WNW 7 11 30.06 1018 10 16 0.00 0.00
10:55 am 10:55 Sunny 81 27 73 22.8 78 78 WNW 7 11 30.06 1018 10 16 0.00 0.00
11:15 am 11:15 Sunny 81 27.3 74 23.2 78 78 W 6 9 30.06 1018 10 16 0.00 0.00
11:35 am 11:35 Sunny 82 27.8 74 23.2 76 76 WNW 5 7 30.06 1018 10 16 0.00 0.00
11:55 am 11:55 Sunny 83 28.3 74 23.5 75 75 W 8 13 30.05 1018 10 16 0.00 0.00
12:15 pm 12:15 Sunny 83 28.6 74 23.4 74 74 W 6 9 30.05 1018 10 16 0.00 0.00
12:35 pm 12:35 Sunny 85 29.2 74 23.2 70 70 WNW 3 6 30.05 1017 10 16 0.00 0.00
12:55 pm 12:55 Sunny 85 29.5 74 23.5 70 70 NW 5 7 30.05 1017 10 16 0.00 0.00
1:15 pm 13:15 Sunny 85 29.6 74 23.6 70 70 W 3 6 30.04 1017 10 16 0.00 0.00
1:35 pm 13:35 Sunny 85 29.7 74 23.3 69 69 W 5 7 30.03 1017 10 16 0.00 0.00
1:55 pm 13:55 Sunny 86 30 74 23.1 67 67 Calm 30.03 1017 10 16 0.00 0.00
2:15 pm 14:15 Sunny 87 30.5 74 23.4 66 66 NW 5 7 30.02 1017 10 16 0.00 0.00
2:35 pm 14:35 Sunny 87 30.6 74 23.1 64 64 W 8 13 30.02 1017 10 16 0.00 0.00
2:55 pm 14:55 Sunny 88 30.9 73 23 63 63 W 6 9 30.02 1017 10 16 0.00 0.00
3:15 pm 15:15 Sunny 88 31 73 22.9 62 62 W 5 7 30.01 1016 10 16 0.00 0.00
3:35 pm 15:35 Sunny 88 31 73 22.6 61 61 W 6 9 30.00 1016 10 16 0.00 0.00
3:55 pm 15:55 Partly Cloudy with Nearby Thunderstorms 87 30.7 73 22.8 63 63 W 3 6 30.00 1016 10 16 0.00 0.00
4:15 pm 16:15 Mostly Cloudy with Heavy Rain 87 30.4 75 23.9 68 68 NNE 12 19 30.01 1016 4 6 0.04 1.02
4:35 pm 16:35 Cloudy with Thunderstorms 76 24.6 69 20.4 78 78 Calm 30.05 1018 2 3 0.13 3.30
4:55 pm 16:55 Mostly Cloudy with Thunderstorms 78 25.5 69 20.7 75 75 NW 3 6 30.02 1017 7 11 0.32 8.13
5:15 pm 17:15 Partly Cloudy 80 26.9 75 23.8 83 83 Calm 30.00 1016 10 16 0.00 0.00
5:35 pm 17:35 Sunny 83 28.6 75 24 76 76 N 3 6 30.00 1016 10 16 0.00 0.00
5:55 pm 17:55 Sunny 84 28.7 74 23.6 74 74 NNW 3 6 29.99 1016 10 16 0.00 0.00
6:15 pm 18:15 Sunny 84 28.8 74 23.1 71 71 WNW 3 6 30.00 1016 10 16 0.00 0.00
6:35 pm 18:35 Sunny 83 28.5 74 23.6 75 75 Calm 30.00 1016 10 16 0.00 0.00
6:55 pm 18:55 Sunny 83 28.3 74 23.5 75 75 Calm 30.00 1016 10 16 0.00 0.00
7:15 pm 19:15 Sunny 83 28.2 73 22.8 73 73 Calm 30.00 1016 10 16 0.00 0.00
7:35 pm 19:35 Sunny 82 27.9 76 24.6 82 82 Calm 29.99 1016 10 16 0.00 0.00
7:55 pm 19:55 Sunny 79 26 76 24.7 93 93 Calm 30.00 1016 10 16 0.00 0.00
8:15 pm 20:15 Sunny 78 25.5 75 24 91 91 Calm 30.01 1016 10 16 0.00 0.00
8:35 pm 20:35 Clear 76 24.5 75 23.8 96 96 Calm 30.02 1017 10 16 0.00 0.00
8:55 pm 20:55 Clear 75 23.9 74 23.3 96 96 Calm 30.02 1017 10 16 0.00 0.00
9:15 pm 21:15 Clear 74 23.5 74 23.2 98 98 Calm 30.03 1017 10 16 0.00 0.00
9:35 pm 21:35 Clear with Mist and Fog 73 22.6 73 22.6 100 100 Calm 30.05 1018 3 5 0.00 0.00
9:55 pm 21:55 Clear with Mist and Fog 73 22.7 73 22.7 100 100 Calm 30.05 1018 3 5 0.00 0.00
10:15 pm 22:15 Mostly Cloudy with Fog 73 22.5 73 22.5 100 100 Calm 30.05 1018 0 0 0.00 0.00
10:35 pm 22:35 Mostly Cloudy with Fog 71 21.9 71 21.9 100 100 Calm 30.06 1018 0 0 0.00 0.00
10:55 pm 22:55 Clear with Mist and Fog 71 21.8 71 21.8 100 100 Calm 30.06 1018 4 6 0.00 0.00
11:15 pm 23:15 Clear with Mist and Fog 72 22 72 22 100 100 Calm 30.06 1018 5 8 0.00 0.00
11:35 pm 23:35 Clear 71 21.5 71 21.4 99 99 Calm 30.06 1018 7 11 0.00 0.00
11:55 pm 23:55 Cloudy with Fog 70 21 70 21 100 100 Calm 30.06 1018 0 0 0.00 0.00

Powered by AerisWeather